Regional Weather Roundup
Issued by NWS Wakefield, VA

Home | Current Version | Previous Version | Graphics & Text | Print | Product List | Glossary On
Versions: 1 2 3 4 5 6 7 8 9 10 11 12 13 14 15 16 17 18 19 20 21 22 23 24 25 26 27 28 29 30 31 32 33 34 35 36 37 38 39 40 41 42 43 44 45 46 47 48 49 50
000
ASUS41 KAKQ 030615
RWRAKQ

REGIONAL WEATHER ROUNDUP
NATIONAL WEATHER SERVICE WAKEFIELD VA
200 AM EDT TUE MAY 03 2016

Note: "fair" indicates few or no clouds below 12,000 feet with no
significant weather and/or obstructions to visibility. * = Denotes
station may not report precipitation (e.g., rain,snow,etc.),
thunder or fog.

VAZ042-051-052>054-056-030700-
NORTHERN VIRGINIA

CITY           SKY/WX    TMP DP  RH WIND       PRES   REMARKS
WASH NATIONAL  CLOUDY    62  60  93 CALM      29.83
DULLES         CLOUDY    63  61  93 E5        29.83S
FORT BELVOIR   CLOUDY    62  60  95 SE1       29.82F
QUANTICO       MOCLDY    65  62  90 NW3       29.83S
FREDERICKSBRG* MOCLDY    64  64 100 S6        29.82F
STAFFORD*      FAIR      63  61  94 CALM      29.87F
WARRENTON      CLOUDY    63  59  85 S5        29.82F
CULPEPER*      CLOUDY    63  63  99 S3        29.84F
MANASSAS*      CLOUDY    63  63 100 S3        29.82F
LEESBURG*      CLOUDY    63  63 100 E3        29.84S
WINCHESTER     LGT RAIN  63  59  88 W5        29.84R
FRONT ROYAL*   CLOUDY    61  61 100 SW5       29.84R
LURAY*         LGT RAIN  61  61 100 CALM      29.85S
$$

VAZ048-049-060>072-079>083-030700-
CENTRAL AND SOUTH CENTRAL VIRGINIA

CITY           SKY/WX    TMP DP  RH WIND       PRES   REMARKS
RICHMOND       HVY RAIN  64  63  96 S10       29.83F FOG
CHESTERFIELD*  CLOUDY    64  54  68 SW5       29.85F
PETERSBURG*    LGT RAIN  66  66 100 CALM      29.86F
HANOVER        LGT RAIN  65  63  93 S7        29.84F
TAPPAHANNOCK*  RAIN      66  66 100 S5        29.84F
QUINTON*       CLOUDY    65  64  99 CALM      29.84F FOG
CHARLOTTSVILLE LGT RAIN  63  60  90 S8        29.83F
GORDONSVILLE*  CLOUDY    62  62  99 S6        29.83F
ORANGE*        CLOUDY    63  63 100 CALM      29.85F
LOUISA*        RAIN      66  64  94 CALM      29.83S
BUMPASS*       CLOUDY    63  62  99 CALM      29.83F
FARMVILLE*     RAIN      64  64 100 SW3       29.84F
CREWE*         CLOUDY    64  64 100 CALM      29.85F
FORT PICKETT*  NOT AVBL
CHASE CITY*    CLOUDY    64  62  94 CALM      29.86F
CLARKSVILLE*   CLOUDY    64  64 100 CALM      29.86F
SOUTH HILL*    CLOUDY    65  64  98 SW5       29.92F
LAWRENCEVILLE* CLOUDY    65  65 100 SW5       29.87F
EMPORIA*       RAIN      64  64 100 CALM      29.89S
$$

VAZ088>098-030700-
SOUTHEAST VIRGINIA

CITY           SKY/WX    TMP DP  RH WIND       PRES   REMARKS
NORFOLK        LGT RAIN  69  64  84 W5        29.87R
VIRGINIA BEACH CLOUDY    72  64  76 NW8       29.87R
NORFOLK NAVAL  CLOUDY    69  65  86 W5        29.88S
WEST POINT*    CLOUDY    65  64  97 CALM      29.86F
SALUDA*        MOCLDY    65  65 100 CALM      29.83F
NEWPORT NEWS   FAIR      66  64  93 S3        29.86F
LANGLEY AFB    MOCLDY    68  65  92 S2        29.86F FOG
FORT EUSTIS    FAIR      66  64  94 SE5       29.84F
WILLIAMSBURG*  FAIR      66  64  94 CALM      29.86F
HR EXEC AP*    MOCLDY    66  64  94 CALM      29.89S
FRANKLIN*      CLOUDY    66  64  94 CALM      29.88F
US460-WAKEFLD  MOCLDY    68  63  84 CALM      29.85F
$$

VAZ020-022-025-037-045-030700-
WEST CENTRAL AND SOUTHWEST VIRGINIA

CITY           SKY/WX    TMP DP  RH WIND       PRES   REMARKS
STAUNTON*      DRIZZLE  N/A N/A N/A CALM      29.88S
WAYNESBORO*    CLOUDY    59  58  96 CALM      29.87S
HOT SPRINGS VA CLOUDY    55  53  94 W10       29.91F
LYNCHBURG      LGT RAIN  60  60 100 SW3       29.88F
DANVILLE       LGT RAIN  62  62 100 CALM      29.88F
SOUTH BOSTON*  CLOUDY    63  61  95 CALM      29.87F
MARTINSVILLE   LGT RAIN  57  57  99 CALM      29.91F
ROANOKE        MOCLDY    61  59  93 W6        29.89F
BLACKSBURG     CLOUDY    58  57  97 CALM      29.93F
DUBLIN*        CLOUDY    58  58 100 CALM      29.92F
MARION*        CLOUDY    58  56  94 CALM      29.94F
HILLSVILLE*    CLOUDY    55  55 100 CALM      29.91F
RICHLANDS*     CLOUDY    56  55  99 CALM      29.93F
WISE*          CLOUDY    55  55 100 CALM      29.95S
ABINGDON*      CLOUDY    60  59  97 CALM      29.92S
$$

MDZ021>025-VAZ099-100-030700-
SOUTHERN MARYLAND AND THE DELMARVA PENINSULA

CITY           SKY/WX    TMP DP  RH WIND       PRES   REMARKS
PATUXENT RIVER CLOUDY    66  63  90 S5        29.84R
BAY BRIDGE APT NOT AVBL
LEONARDTOWN    CLOUDY    64  63  94 SW5       29.86S
DOVER          CLOUDY    59  59 100 SE3       29.81R
GEORGETOWN     LGT RAIN  60  59  96 S6        29.84F
EASTON         CLOUDY   N/A N/A N/A CALM      29.85F
CAMBRIDGE        N/A     64  63  94 SW6       29.83
SALISBURY      RAIN      64  63  96 SW7       29.84S FOG
OCEAN CITY     HVY RAIN  64  63  96 SW6       29.84F FOG
WALLOPS ISLAND TSTM      65  64  97 W7        29.84F FOG
ACCOMACK*      CLOUDY    64  61  88 W6        29.87S
$$

NCZ012>017-030>032-030700-
NORTH CENTRAL AND EASTERN NORTH CAROLINA

CITY           SKY/WX    TMP DP  RH WIND       PRES   REMARKS
ROANOKE RAPIDS MOCLDY    66  63  88 CALM      29.88R
RALEIGH        LGT RAIN  67  65  93 W8        29.90R
ELIZABETH CITY CLOUDY    70  67  90 S10       29.86F
AHOSKIE*       CLOUDY    66  63  89 CALM      29.86F
EDENTON*       CLOUDY    71  70  98 SW9       29.88S
CURRITUCK*     CLOUDY    71  67  85 SW6       29.87S
KILL DEVIL HLS CLOUDY    72  68  86 SW8G17    29.86F
MANTEO         NOT AVBL
CAPE HATTERAS  CLOUDY    71  69  93 SW10      29.91F
TARBORO*       CLOUDY    68  64  87 S3        29.87F
GOLDSBORO      NOT AVBL
WASHINGTON     MOCLDY    69  67  93 S8        29.87F
GREENVILLE     CLOUDY    68  66  94 S7        29.89F
NEW BERN       MOCLDY    71  68  90 SW9       29.90F
WILMINGTON     CLOUDY    73  68  84 S10       29.90F
$$

VAZ048-030700-
ELSEWHERE

CITY           SKY/WX    TMP DP  RH WIND       PRES   REMARKS
HARRISBURG PA  LGT RAIN  59  57  93 E5        29.83F FOG
BALTIMORE      CLOUDY    61  60  97 NE7       29.82F FOG
ANNAPOLIS      CLOUDY    62  61  96 CALM      29.82F FOG
ANDREWS AFB    FOG       63  62  97 CALM      29.82F VSB 3/4
PHILADELPHIA   CLOUDY    59  55  87 E9        29.85F
HENDERSON NC   HVY RAIN  66  66 100 W3        29.89S
GREENSBORO     LGT RAIN  61  60  97 SE3       29.89F
ROCKY MOUNT    CLOUDY    67  63  87 S7        29.86F
$$

VAZ100-030700-
MARINE

STATION/POSITION TIME  TEMP    WIND        PRES    WAVE   SWELL
                       AIR SEA DIR/SP/G            HT/PER HT/PER
                 (UTC) (F)     (DEG/KT/KT) (MB)    (FT/S) (FT/S)
BRANDYWINE LGT   0500   58     100/ 14/ 15 1010.8F
CAPE MAY NJ      0500   57 58   80/  7/  9 1011.1F
LEWES DE         0500   57 57   70/  8/ 10 1010.6F
15NM E FENWICK I 0550   55 52              1010.8F   3/ 9
OCEAN-CITY-INLET 0500   64 58  330/  6/  7 1010.1F
WACHAPREAGUE VA  0500   66 67  280/  1/  3 1010.6S
THOMAS POINT MD  0600   61 58  320/  5/  5 1011.1F
GOOSES REEF MD   0600   63 59  220/ 10/ 12 1010.8F   1/ 3
COVE POINT MD    0500   65     220/  4/  6 1010.6F
SOLOMONS ISLAND  0500   63 61  220/  8/  8   N/A
BISHOPS HEAD MD  0500   64 62  180/ 11/ 12 1010.4F
PINEY POINT MD   0500          200/  8/  9   N/A
POTOMAC MD       0600   62 60  170/  6/  6 1009.7F   1
CAMBRIDGE MD     0500   66 61  190/  4/  7 1008.9F
LEWISETTA VA     0500   66 62  230/  5/  6 1010.7S
RAPPAHANNOCK LGT 0500          270/ 12/ 13 1012.2R
STINGRAY PT      0600   63 62  110/  4/  6 1010.7F   0
YORK RVR RNG VA  0500   67     310/ 12/ 14 1011.1R
YORKTOWN VA      0500   68 64  280/  9/ 11 1011.4R
JAMESTOWN VA     0600   67 67   CALM  /  2   N/A
DOMINION TERM VA 0500   68     290/ 12/ 14 1011.9R
KIPTOPEKE VA     0500      62  180/  3/  5   N/A
CHES BAY BRIDGE  0500   69 62  200/ 17/ 19 1010.5R
CAPE HENRY VA    0500   69     210/  8/ 13   N/A
CHESAPEAKE LGHT  0500   65     190/ 14/ 15 1011.6F
WILLOUBY STN VA  0500   67     260/  9/ 10 1012.6R
CAPE HENRY BUOY  0512      60                N/A     3/ 6
CAPE CHARLES BUO 0526      58                N/A     3/10   2/10
OFFSHORE WE BUOY 0521      56                N/A     3/ 5   2/11
64NM E OF VA BCH 0550   60 54  200/ 16/ 17 1011.0F   4/10   2/10
DUCK PIER NC     0500   72 67  200/ 13/ 18 1011.5F
44100 DUCK FRF   0524      61                N/A     3/10   2/11
44056 DUCK FRF   0511      58                N/A     3/11   2/11
OREGON INLET NC  0500   71 72  190/ 18/ 20 1012.4F
HATTERAS NC      0500   72 70  210/ 11/ 14 1013.6F
DIAMOND SHLS NC  0550   74 74  220/ 16/ 19 1012.9F   4/10   2/10
CAPE LOOKOUT NC  0600   71     200/ 12/ 15 1012.8F
$$



USA.gov is the U.S. government's official web portal to all federal, state and local government web resources and services.